Orbital Elements at Epoch 2459200.5 (2020-Dec-17.0) TDB
Reference: JPL 20 (heliocentric ecliptic J2000)
Element | Value | Uncertainty (1-sigma) | Units |
e | .2274176814189219 | 6.1842e-08 | |
a | 2.681871069504717 | 1.8861e-08 | au |
q | 2.07196616901347 | 1.7299e-07 | au |
i | 9.233577707131722 | 5.5879e-06 | deg |
node | 152.0394833495341 | 3.1537e-05 | deg |
peri | 33.80387443095216 | 3.3894e-05 | deg |
M | 354.0048908116183 | 1.7188e-05 | deg |
tp | 2459227.214673237837 (2021-Jan-12.71467324) | 7.6817e-05 | TDB |
period | 1604.188024508226 4.39 | 1.6922e-05 4.633e-08 | d yr |
n | .2244125965909516 | 2.3673e-09 | deg/d |
Q | 3.291775969995964 | 2.315e-08 | au |
|
| | Orbit Determination Parameters
Additional Information
|